Las Vegas, NM

9:06 PM MDT on May 25, 2017 (GMT -0600)
Las Vegas Municipal

Weather History for KLVS - November, 2012

Change the Weather History Date:

Friday, November 2, 2012

  Actual Average Record
Temperature  
Mean Temperature 55 °F -  
Max Temperature 69 °F 55 °F 75 °F (2015)
Min Temperature 41 °F 26 °F -7 °F (1951)
Degree Days  
Heating Degree Days 10    
Growing Degree Days 5 (Base 50)    
Moisture  
Dew Point 9 °F    
Average Humidity 19    
Maximum Humidity 35    
Minimum Humidity 8    
Precipitation  
Precipitation 0.00 in - - ()
Sea Level Pressure  
Sea Level Pressure 29.90 in    
Wind  
Wind Speed 8 mph (SSE)    
Max Wind Speed 15 mph    
Max Gust Speed -    
Visibility 10 miles    
Events      
Averages and records for this station are not official NWS values.
T = Trace of Precipitation, MM = Missing Value Source: NWS Daily Summary

Daily Weather History Graph

Daily Weather History Graph

Search for Another Location

Airport or City:

Trip Planner

Search our weather history database for the weather conditions in past years. The results will help you decide how hot, cold, wet, or windy it might be!

Date:

Astronomy

Nov. 02, 2012 Rise Set
Actual Time 7:24 AM MDT 6:03 PM MDT
Civil Twilight 6:57 AM MDT 6:30 PM MDT
Nautical Twilight 6:27 AM MDT 7:00 PM MDT
Astronomical Twilight 5:57 AM MDT 7:30 PM MDT
Moon 8:57 PM MDT (11/2) 10:42 AM MDT (11/2)
Length of Visible Light 11h 32m
Length of Day
10h 39m
Waning Gibbous, 87% of the Moon is Illuminated
Nov 2
Waning Gibbous
Nov 6
Last Quarter
Nov 13
New
Nov 20
First Quarter
Nov 28
Full

Hourly Weather History & Observations

Time (MDT) Temp. Windchill Dew Point Humidity Pressure Visibility Wind Dir Wind Speed Gust Speed Precip Events Conditions
12:53 AM 43.0 °F 37.7 °F 9.0 °F 25% 29.86 in 10.0 mi SSW 9.2 mph - N/A   Clear
1:53 AM 43.0 °F 37.2 °F 9.0 °F 25% 29.85 in 10.0 mi SSW 10.4 mph - N/A   Clear
2:53 AM 42.1 °F 35.2 °F 8.1 °F 25% 29.86 in 10.0 mi SSW 12.7 mph - N/A   Clear
3:53 AM 43.0 °F 37.2 °F 9.0 °F 25% 29.85 in 10.0 mi South 10.4 mph - N/A   Clear
4:53 AM 44.1 °F 39.5 °F 9.0 °F 24% 29.86 in 10.0 mi South 8.1 mph - N/A   Clear
5:53 AM 43.0 °F 37.7 °F 8.1 °F 24% 29.89 in 10.0 mi SSW 9.2 mph - N/A   Clear
6:53 AM 44.1 °F 40.8 °F 9.0 °F 24% 29.92 in 10.0 mi WSW 5.8 mph - N/A   Clear
7:53 AM 42.1 °F 37.7 °F 9.0 °F 26% 29.94 in 10.0 mi WSW 6.9 mph - N/A   Clear
8:53 AM 53.1 °F - 10.0 °F 18% 29.94 in 10.0 mi WSW 5.8 mph - N/A   Clear
9:53 AM 57.9 °F - 12.0 °F 16% 29.92 in 10.0 mi Calm Calm - N/A   Clear
10:53 AM 62.1 °F - 9.0 °F 12% 29.90 in 10.0 mi Variable 3.5 mph - N/A   Clear
11:53 AM 64.9 °F - 6.1 °F 10% 29.88 in 10.0 mi East 4.6 mph - N/A   Clear
12:53 PM 66.9 °F - 5.0 °F 9% 29.88 in 10.0 mi East 6.9 mph - N/A   Clear
1:53 PM 66.9 °F - 3.9 °F 8% 29.85 in 10.0 mi East 5.8 mph - N/A   Clear
2:53 PM 68.0 °F - 3.9 °F 8% 29.83 in 10.0 mi ESE 8.1 mph - N/A   Clear
3:53 PM 68.0 °F - 5.0 °F 8% 29.82 in 10.0 mi Variable 3.5 mph - N/A   Clear
4:53 PM 68.0 °F - 5.0 °F 8% 29.82 in 10.0 mi Calm Calm - N/A   Clear
5:53 PM 59.0 °F - 5.0 °F 12% 29.88 in 10.0 mi WSW 4.6 mph - N/A   Clear
6:53 PM 57.0 °F - 5.0 °F 12% 29.90 in 10.0 mi NNE 15.0 mph - N/A   Clear
7:53 PM 52.0 °F - 9.0 °F 18% 29.96 in 10.0 mi ENE 13.8 mph - N/A   Clear
8:53 PM 48.0 °F - 10.9 °F 22% 29.96 in 10.0 mi NE 10.4 mph - N/A   Clear
9:53 PM 46.0 °F 41.0 °F 12.9 °F 26% 29.97 in 10.0 mi NE 10.4 mph - N/A   Clear
10:53 PM 43.0 °F 38.2 °F 17.1 °F 35% 29.99 in 10.0 mi North 8.1 mph - N/A   Clear
11:53 PM 41.0 °F 36.4 °F 15.1 °F 35% 30.01 in 10.0 mi North 6.9 mph - N/A   Clear